Regional Weather Roundup
Issued by NWS

Home | Current Version | Previous Version | Text Only | Print | Product List | Glossary On
Versions: 1 2 3 4 5 6 7 8 9 10 11 12 13 14 15 16 17 18 19 20 21 22 23 24 25 26 27 28 29 30 31 32 33 34 35 36 37 38 39 40 41 42 43 44 45 46 47 48 49 50
000
ASUS44 KLIX 240113
RWRLA
LOUISIANA WEATHER ROUNDUP
NATIONAL WEATHER SERVICE NEW ORLEANS LA
800 PM CDT FRI JUN 23 2017

NOTE: "FAIR" INDICATES FEW OR NO CLOUDS BELOW 12,000 FEET WITH NO
      SIGNIFICANT WEATHER AND/OR OBSTRUCTIONS TO VISIBILITY.
      SKY/WX - SKY CONDITION AND SIGNIFICANT WEATHER.
      TMP - AIR TEMPERATURE.    DP   - DEWPOINT TEMPERATURE.
      RH  - RELATIVE HUMIDITY.  PRES - PRESSURE.
      HX  - HEAT INDEX.         WCI  - WIND CHILL INDEX.

*  THESE STATIONS ARE NOT NWS OR FAA STATIONS AND ARE NOT UNDER
   NWS QUALITY CONTROL.

LAZ040-048-061>063-065-066-069-240200-
SOUTHEAST LOUISIANA

CITY           SKY/WX    TMP DP  RH WIND       PRES   REMARKS
N.O. INTL ARPT PTCLDY    83  78  85 S10       29.92R
N.O. LAKEFRONT MOCLDY    84  78  82 S15       29.92R HX  95
N.O. DOWNTOWN*   N/A     87  78  74 S7          N/A  HX 100
RESERVE*       MOCLDY    85  78  78 S7        29.91R HX  97
SLIDELL        MOCLDY    80  77  90 S9        29.91S
BATON ROUGE    PTCLDY    85  76  74 SW10      29.90R
BOOTHVILLE     MOCLDY    82  79  90 S12       29.97R
BELLE CHASSE   MOCLDY    84  79  85 S12       29.92R HX  96
BOGALUSA*      MOCLDY    80  74  82 CALM      29.95R
GALLIANO*      CLOUDY    82  76  80 S8        29.94R
NEW ROADS*       N/A     80  78  95 CALM      29.90R
GONZALES*      MOCLDY    84  78  81 S5        29.89R
HAMMOND*       PTCLDY    82  77  83 S3        29.91R
HOUMA*         NOT AVBL
PORT FOURCHON* MOCLDY    82  77  83 S9        29.95R HAZE

$$

LAZ041-044-053-054-240200-
SOUTHWEST LOUISIANA

CITY           SKY/WX    TMP DP  RH WIND       PRES   REMARKS
LAKE CHARLES   CLEAR     84  81  90 S8        29.87R HX  99
LAFAYETTE      PTCLDY    84  78  82 S8        29.89R HX  95
PATTERSON      MOCLDY    82  80  94 S6        29.91R
SALT POINT       N/A     84  79  85 VRB3      29.89R HX  96
NEW IBERIA     CLEAR     83  78  85 S10       29.89R
CHENAULT AIRPK NOT AVBL

$$

LAZ027-028-240200-
CENTRAL LOUISIANA

CITY           SKY/WX    TMP DP  RH WIND       PRES   REMARKS
FORT POLK      CLEAR     85  77  79 S9        29.86R HX  95
ALEXANDRIA INT CLEAR     83  78  85 S5        29.85R
ALEXANDRIA     CLEAR     83  79  88 CALM      29.87R

$$

LAZ001-002-240200-
NORTHWEST LOUISIANA

CITY           SKY/WX    TMP DP  RH WIND       PRES   REMARKS
SHREVEPORT     MOCLDY    87  79  76 S3        29.85R HX 101
BARKSDALE AFB  PTCLDY    87  77  70 S5        29.85R HX  98
DTN SHREVEPORT MOCLDY    88  76  67 S6        29.86R HX  99

$$

LAZ014-016-240200-
NORTHEAST LOUISIANA

CITY           SKY/WX    TMP DP  RH WIND       PRES   REMARKS
MONROE         PTCLDY    85  77  77 CALM      29.89R HX  95
TALLULAH       CLOUDY    81  77  88 S3        29.90R

$$




USA.gov is the U.S. government's official web portal to all federal, state and local government web resources and services.